START_TIME,STEP,MOV.,M35,t_acc.,PL05,t_acc.,PL06,t_acc.,PL07,t_acc.
1980-11-13 21:00:12.460 ,7,0,0.,4.8,0.,4.8,0.,4.8,1.,4.8
1980-11-13 21:00:17.260 ,7,0,0.,4.8,0.,4.8,0.,4.8,1.,4.8
1980-11-13 21:00:22.060 ,7,0,0.,4.8,1.,4.8,0.,4.8,0.,4.8
1980-11-13 21:00:26.860 ,7,0,0.,4.8,0.,4.8,0.,4.8,0.,4.8
1980-11-13 21:00:31.660 ,7,0,0.,4.8,0.,4.8,1.,4.8,0.,4.8
1980-11-13 21:00:36.460 ,7,0,0.,4.8,0.,4.8,0.,4.8,0.,4.8
1980-11-13 21:00:41.260 ,7,0,0.,4.8,0.,4.8,1.,4.8,0.,4.8
1980-11-13 21:00:46.060 ,7,0,0.,4.8,0.,4.8,0.,4.8,0.,4.8
1980-11-13 21:00:50.860 ,7,0,0.,4.8,0.,4.8,1.,4.8,1.,4.8
1980-11-13 21:00:55.660 ,7,0,0.,4.8,0.,4.8,0.,4.8,0.,4.8
1980-11-13 21:01:00.460 ,7,0,0.,4.8,0.,4.8,0.,4.8,1.,4.8
1980-11-13 21:01:05.260 ,7,0,0.,4.8,0.,4.8,2.,4.8,3.,4.8
1980-11-13 21:01:10.060 ,7,0,0.,4.8,0.,4.8,0.,4.8,0.,4.8
1980-11-13 21:01:14.860 ,7,0,0.,4.8,0.,4.8,0.,4.8,1.,4.8
1980-11-13 21:01:19.660 ,7,0,0.,4.8,0.,4.8,1.,4.8,1.,4.8
1980-11-13 21:01:24.460 ,6,0,0.,4.8,0.,4.8,0.,4.8,0.,4.8
1980-11-13 21:01:29.260 ,6,0,0.,4.8,0.,4.8,0.,4.8,2.,4.8
1980-11-13 21:01:34.060 ,6,0,0.,4.8,0.,4.8,0.,4.8,0.,4.8
1980-11-13 21:01:38.860 ,6,0,0.,4.8,1.,4.8,1.,4.8,1.,4.8
1980-11-13 21:01:43.660 ,6,0,0.,4.8,1.,4.8,0.,4.8,0.,4.8
1980-11-13 21:01:48.460 ,6,0,0.,4.8,0.,4.8,0.,4.8,0.,4.8
1980-11-13 21:01:53.260 ,6,0,0.,4.8,0.,4.8,1.,4.8,0.,4.8
1980-11-13 21:01:58.060 ,6,0,0.,4.8,1.,4.8,0.,4.8,0.,4.8
1980-11-13 21:02:02.860 ,6,0,0.,4.8,0.,4.8,0.,4.8,0.,4.8
1980-11-13 21:02:07.660 ,6,0,0.,4.8,1.,4.8,0.,4.8,0.,4.8
1980-11-13 21:02:12.460 ,5,0,0.,4.8,0.,4.8,0.,4.8,1.,4.8
1980-11-13 21:02:17.260 ,5,0,0.,4.8,0.,4.8,0.,4.8,0.,4.8
1980-11-13 21:02:22.060 ,5,0,0.,4.8,0.,4.8,0.,4.8,0.,4.8
1980-11-13 21:02:26.860 ,5,0,0.,4.8,2.,4.8,1.,4.8,0.,4.8
1980-11-13 21:02:31.660 ,5,0,0.,4.8,0.,4.8,0.,4.8,0.,4.8
1980-11-13 21:02:36.460 ,5,0,0.,4.8,2.,4.8,0.,4.8,0.,4.8
1980-11-13 21:02:41.260 ,5,0,0.,4.8,0.,4.8,2.,4.8,0.,4.8
1980-11-13 21:02:46.060 ,5,0,0.,4.8,0.,4.8,0.,4.8,0.,4.8
1980-11-13 21:02:50.860 ,5,0,0.,4.8,0.,4.8,0.,4.8,0.,4.8
1980-11-13 21:02:55.660 ,5,0,0.,4.8,1.,4.8,0.,4.8,0.,4.8
1980-11-13 21:03:00.460 ,4,0,0.,4.8,0.,4.8,0.,4.8,1.,4.8
1980-11-13 21:03:05.260 ,4,0,0.,4.8,0.,4.8,0.,4.8,0.,4.8
1980-11-13 21:03:10.060 ,4,0,0.,4.8,0.,4.8,0.,4.8,0.,4.8
1980-11-13 21:03:14.860 ,4,0,0.,4.8,0.,4.8,1.,4.8,0.,4.8
1980-11-13 21:03:19.660 ,4,0,0.,4.8,1.,4.8,0.,4.8,0.,4.8
1980-11-13 21:03:24.460 ,4,0,0.,4.8,1.,4.8,1.,4.8,0.,4.8
1980-11-13 21:03:29.260 ,4,0,0.,4.8,1.,4.8,0.,4.8,0.,4.8
1980-11-13 21:03:34.060 ,4,0,0.,4.8,0.,4.8,0.,4.8,0.,4.8
1980-11-13 21:03:38.860 ,4,0,0.,4.8,0.,4.8,0.,4.8,0.,4.8
1980-11-13 21:03:43.660 ,4,0,0.,4.8,2.,4.8,0.,4.8,0.,4.8
1980-11-13 21:03:48.460 ,3,0,0.,4.8,0.,4.8,1.,4.8,0.,4.8
1980-11-13 21:03:53.260 ,3,0,0.,4.8,0.,4.8,0.,4.8,0.,4.8
1980-11-13 21:03:58.060 ,3,0,0.,4.8,0.,4.8,0.,4.8,0.,4.8
1980-11-13 21:04:02.860 ,3,0,0.,4.8,1.,4.8,0.,4.8,0.,4.8
1980-11-13 21:04:07.660 ,3,0,0.,4.8,1.,4.8,0.,4.8,0.,4.8
1980-11-13 21:04:12.460 ,3,0,0.,4.8,0.,4.8,0.,4.8,0.,4.8
1980-11-13 21:04:17.260 ,3,0,0.,4.8,0.,4.8,0.,4.8,0.,4.8
1980-11-13 21:04:22.060 ,3,0,0.,4.8,1.,4.8,1.,4.8,0.,4.8
1980-11-13 21:04:26.860 ,3,0,0.,4.8,1.,4.8,0.,4.8,0.,4.8
1980-11-13 21:04:31.660 ,3,0,0.,4.8,0.,4.8,0.,4.8,0.,4.8
1980-11-13 21:04:36.460 ,2,0,0.,4.8,1.,4.8,0.,4.8,0.,4.8
1980-11-13 21:04:41.260 ,2,0,0.,4.8,0.,4.8,0.,4.8,0.,4.8
1980-11-13 21:04:46.060 ,2,0,0.,4.8,0.,4.8,1.,4.8,0.,4.8
1980-11-13 21:04:50.860 ,2,0,0.,4.8,0.,4.8,0.,4.8,0.,4.8
1980-11-13 21:04:55.660 ,2,0,0.,4.8,0.,4.8,0.,4.8,0.,4.8
1980-11-13 21:05:00.460 ,2,0,0.,4.8,0.,4.8,0.,4.8,0.,4.8
1980-11-13 21:05:05.260 ,2,0,0.,4.8,1.,4.8,0.,4.8,0.,4.8
1980-11-13 21:05:10.060 ,2,0,0.,4.8,0.,4.8,0.,4.8,0.,4.8
1980-11-13 21:05:14.860 ,2,0,0.,4.8,0.,4.8,0.,4.8,0.,4.8
1980-11-13 21:05:19.660 ,2,0,0.,4.8,0.,4.8,0.,4.8,0.,4.8
1980-11-13 21:05:24.460 ,1,0,0.,4.8,0.,4.8,0.,4.8,0.,4.8
1980-11-13 21:05:29.260 ,1,0,,0,,0,,0,,0
1980-11-13 21:05:34.060 ,1,0,,0,,0,,0,,0
1980-11-13 21:05:38.860 ,1,0,0.,4.8,0.,4.8,0.,4.8,0.,4.8
1980-11-13 21:05:43.660 ,1,0,0.,4.8,0.,4.8,0.,4.8,0.,4.8
1980-11-13 21:05:48.460 ,0,0,0.,4.8,1.,4.8,0.,4.8,0.,4.8
1980-11-13 21:05:53.260 ,0,0,0.,4.8,0.,4.8,0.,4.8,0.,4.8
1980-11-13 21:05:58.060 ,0,0,0.,4.8,3.,4.8,1.,4.8,0.,4.8
1980-11-13 21:06:02.860 ,0,0,0.,4.8,1.,4.8,0.,4.8,0.,4.8
1980-11-13 21:06:07.660 ,0,0,0.,4.8,0.,4.8,0.,4.8,1.,4.8
1980-11-13 21:07:16.060 ,0,0,,0,,0,,0,,0
1980-11-13 21:07:20.860 ,0,0,,0,,0,,0,,0
1980-11-13 21:07:25.660 ,0,0,,0,,0,,0,,0
1980-11-13 21:07:30.460 ,0,0,0.,4.8,1.,4.8,0.,4.8,0.,4.8
1980-11-13 21:07:35.260 ,0,0,0.,4.8,0.,4.8,2.,4.8,0.,4.8
1980-11-13 21:07:24.460 ,0,0,0.,4.8,0.,4.8,0.,4.8,0.,4.8
1980-11-13 21:07:29.260 ,0,0,0.,4.8,0.,4.8,1.,4.8,0.,4.8
1980-11-13 21:07:34.060 ,0,0,0.,4.8,1.,4.8,0.,4.8,1.,4.8
1980-11-13 21:07:38.860 ,0,0,0.,4.8,0.,4.8,0.,4.8,0.,4.8
1980-11-13 21:07:43.660 ,0,0,0.,4.8,1.,4.8,0.,4.8,0.,4.8
1980-11-13 21:07:48.460 ,1,0,0.,4.8,1.,4.8,0.,4.8,0.,4.8
1980-11-13 21:07:53.260 ,1,0,0.,4.8,0.,4.8,2.,4.8,0.,4.8
1980-11-13 21:07:58.060 ,1,0,0.,4.8,0.,4.8,0.,4.8,0.,4.8
1980-11-13 21:08:02.860 ,1,0,0.,4.8,1.,4.8,0.,4.8,1.,4.8
1980-11-13 21:08:07.660 ,1,0,0.,4.8,0.,4.8,0.,4.8,0.,4.8
1980-11-13 21:08:12.460 ,1,0,0.,4.8,1.,4.8,1.,4.8,0.,4.8
1980-11-13 21:08:17.260 ,1,0,0.,4.8,0.,4.8,0.,4.8,0.,4.8
1980-11-13 21:08:22.060 ,1,0,0.,4.8,0.,4.8,0.,4.8,0.,4.8
1980-11-13 21:08:26.860 ,1,0,0.,4.8,2.,4.8,0.,4.8,0.,4.8
1980-11-13 21:08:31.660 ,1,0,0.,4.8,0.,4.8,0.,4.8,0.,4.8
1980-11-13 21:08:36.460 ,2,0,0.,4.8,0.,4.8,0.,4.8,0.,4.8
1980-11-13 21:08:41.260 ,2,0,0.,4.8,1.,4.8,0.,4.8,1.,4.8
1980-11-13 21:08:46.060 ,2,0,0.,4.8,0.,4.8,0.,4.8,0.,4.8
1980-11-13 21:08:50.860 ,2,0,0.,4.8,0.,4.8,0.,4.8,0.,4.8
1980-11-13 21:08:55.660 ,2,0,0.,4.8,1.,4.8,0.,4.8,0.,4.8
1980-11-13 21:09:00.460 ,2,0,0.,4.8,0.,4.8,0.,4.8,0.,4.8
1980-11-13 21:09:05.260 ,2,0,0.,4.8,1.,4.8,0.,4.8,0.,4.8
1980-11-13 21:09:10.060 ,2,0,0.,4.8,1.,4.8,0.,4.8,1.,4.8
1980-11-13 21:09:14.860 ,2,0,0.,4.8,1.,4.8,0.,4.8,0.,4.8
1980-11-13 21:09:19.660 ,2,0,0.,4.8,2.,4.8,0.,4.8,0.,4.8
1980-11-13 21:09:24.460 ,3,0,0.,4.8,0.,4.8,0.,4.8,0.,4.8
1980-11-13 21:09:29.260 ,3,0,0.,4.8,0.,4.8,0.,4.8,0.,4.8
1980-11-13 21:09:34.060 ,3,0,0.,4.8,1.,4.8,1.,4.8,0.,4.8
1980-11-13 21:09:38.860 ,3,0,0.,4.8,0.,4.8,0.,4.8,0.,4.8
1980-11-13 21:09:43.660 ,3,0,0.,4.8,0.,4.8,0.,4.8,0.,4.8
1980-11-13 21:09:48.460 ,3,0,0.,4.8,0.,4.8,0.,4.8,0.,4.8
1980-11-13 21:09:53.260 ,3,0,0.,4.8,0.,4.8,1.,4.8,0.,4.8
1980-11-13 21:09:58.060 ,3,0,0.,4.8,1.,4.8,1.,4.8,0.,4.8
1980-11-13 21:10:02.860 ,3,0,0.,4.8,0.,4.8,0.,4.8,0.,4.8
1980-11-13 21:10:07.660 ,3,0,0.,4.8,0.,4.8,0.,4.8,0.,4.8
1980-11-13 21:10:12.460 ,4,0,0.,4.8,0.,4.8,1.,4.8,1.,4.8
1980-11-13 21:10:17.260 ,4,0,0.,4.8,0.,4.8,0.,4.8,0.,4.8
1980-11-13 21:10:22.060 ,4,0,0.,4.8,0.,4.8,0.,4.8,0.,4.8
1980-11-13 21:10:26.860 ,4,0,0.,4.8,0.,4.8,0.,4.8,1.,4.8
1980-11-13 21:10:31.660 ,4,0,0.,4.8,0.,4.8,0.,4.8,0.,4.8
1980-11-13 21:10:36.460 ,4,0,0.,4.8,1.,4.8,1.,4.8,0.,4.8
1980-11-13 21:10:41.260 ,4,0,0.,4.8,0.,4.8,0.,4.8,0.,4.8
1980-11-13 21:10:46.060 ,4,0,0.,4.8,0.,4.8,0.,4.8,0.,4.8
1980-11-13 21:10:50.860 ,4,0,0.,4.8,0.,4.8,1.,4.8,0.,4.8
1980-11-13 21:10:55.660 ,4,0,0.,4.8,0.,4.8,0.,4.8,0.,4.8
1980-11-13 21:11:00.460 ,5,0,0.,4.8,1.,4.8,0.,4.8,0.,4.8
1980-11-13 21:11:05.260 ,5,0,0.,4.8,1.,4.8,0.,4.8,0.,4.8
1980-11-13 21:11:10.060 ,5,0,0.,4.8,0.,4.8,1.,4.8,1.,4.8
1980-11-13 21:11:14.860 ,5,0,0.,4.8,0.,4.8,0.,4.8,0.,4.8
1980-11-13 21:11:19.660 ,5,0,0.,4.8,1.,4.8,0.,4.8,1.,4.8
1980-11-13 21:11:24.460 ,5,0,0.,4.8,1.,4.8,0.,4.8,0.,4.8
1980-11-13 21:11:29.260 ,5,0,0.,4.8,0.,4.8,0.,4.8,0.,4.8
1980-11-13 21:11:34.060 ,5,0,0.,4.8,0.,4.8,0.,4.8,0.,4.8
1980-11-13 21:11:38.860 ,5,0,0.,4.8,0.,4.8,0.,4.8,0.,4.8
1980-11-13 21:11:43.660 ,5,0,0.,4.8,1.,4.8,0.,4.8,0.,4.8
1980-11-13 21:11:48.460 ,6,0,0.,4.8,1.,4.8,0.,4.8,0.,4.8
1980-11-13 21:11:53.260 ,6,0,0.,4.8,0.,4.8,0.,4.8,0.,4.8
1980-11-13 21:11:58.060 ,6,0,0.,4.8,2.,4.8,1.,4.8,0.,4.8
1980-11-13 21:12:02.860 ,6,0,0.,4.8,0.,4.8,0.,4.8,0.,4.8
1980-11-13 21:12:07.660 ,6,0,0.,4.8,0.,4.8,0.,4.8,0.,4.8
1980-11-13 21:12:12.460 ,6,0,0.,4.8,0.,4.8,0.,4.8,0.,4.8
1980-11-13 21:12:17.260 ,6,0,0.,4.8,1.,4.8,0.,4.8,0.,4.8
1980-11-13 21:12:22.060 ,6,0,0.,4.8,1.,4.8,0.,4.8,0.,4.8
1980-11-13 21:12:26.860 ,6,0,0.,4.8,0.,4.8,0.,4.8,0.,4.8
1980-11-13 21:12:31.660 ,6,0,0.,4.8,0.,4.8,0.,4.8,0.,4.8
1980-11-13 21:12:36.460 ,7,0,0.,4.8,0.,4.8,1.,4.8,1.,4.8
1980-11-13 21:12:41.260 ,7,0,0.,4.8,1.,4.8,0.,4.8,1.,4.8
1980-11-13 21:12:46.060 ,7,0,0.,4.8,1.,4.8,0.,4.8,1.,4.8
1980-11-13 21:12:50.860 ,7,0,0.,4.8,1.,4.8,1.,4.8,0.,4.8
1980-11-13 21:12:55.660 ,7,0,0.,4.8,0.,4.8,0.,4.8,0.,4.8
1980-11-13 21:13:00.460 ,7,0,0.,4.8,1.,4.8,3.,4.8,0.,4.8
1980-11-13 21:13:05.260 ,7,0,0.,4.8,0.,4.8,2.,4.8,0.,4.8
1980-11-13 21:13:10.060 ,7,0,0.,4.8,0.,4.8,0.,4.8,0.,4.8
1980-11-13 21:13:14.860 ,7,0,0.,4.8,0.,4.8,1.,4.8,0.,4.8
1980-11-13 21:13:19.660 ,7,0,0.,4.8,0.,4.8,1.,4.8,0.,4.8
1980-11-13 21:13:24.460 ,7,0,0.,4.8,1.,4.8,0.,4.8,0.,4.8
1980-11-13 21:13:29.260 ,7,0,0.,4.8,2.,4.8,0.,4.8,1.,4.8
1980-11-13 21:13:34.060 ,7,0,0.,4.8,0.,4.8,0.,4.8,0.,4.8
1980-11-13 21:13:38.860 ,7,0,0.,4.8,1.,4.8,0.,4.8,1.,4.8
1980-11-13 21:13:43.660 ,7,0,0.,4.8,0.,4.8,0.,4.8,0.,4.8
1980-11-13 21:13:48.460 ,0,0,0.,4.8,1.,4.8,1.,4.8,0.,4.8
1980-11-13 21:13:53.260 ,0,0,0.,4.8,1.,4.8,1.,4.8,0.,4.8
1980-11-13 21:13:58.060 ,0,0,0.,4.8,0.,4.8,1.,4.8,0.,4.8
1980-11-13 21:14:02.860 ,0,0,0.,4.8,0.,4.8,0.,4.8,0.,4.8
1980-11-13 21:14:07.660 ,0,0,0.,4.8,0.,4.8,0.,4.8,3.,4.8
1980-11-13 21:14:34.660 ,0,0,,0,,0,,0,,0
1980-11-13 21:14:39.460 ,0,0,,0,,0,,0,,0
1980-11-13 21:14:44.260 ,0,0,,0,,0,,0,,0
1980-11-13 21:14:49.060 ,0,0,,0,,0,,0,,0
1980-11-13 21:14:53.860 ,0,0,,0,,0,,0,,0
1980-11-13 21:14:36.460 ,0,0,0.,4.8,2.,4.8,1.,4.8,0.,4.8
1980-11-13 21:14:41.260 ,0,0,0.,4.8,1.,4.8,1.,4.8,0.,4.8
1980-11-13 21:14:46.060 ,0,0,0.,4.8,0.,4.8,0.,4.8,1.,4.8
1980-11-13 21:14:50.860 ,0,0,0.,4.8,1.,4.8,0.,4.8,0.,4.8
1980-11-13 21:14:55.660 ,0,0,0.,4.8,1.,4.8,0.,4.8,2.,4.8
1980-11-13 21:15:00.460 ,5,0,0.,4.8,0.,4.8,0.,4.8,0.,4.8
1980-11-13 21:15:05.260 ,5,0,0.,4.8,0.,4.8,0.,4.8,0.,4.8
1980-11-13 21:15:10.060 ,5,0,0.,4.8,1.,4.8,1.,4.8,0.,4.8
1980-11-13 21:15:14.860 ,5,0,0.,4.8,1.,4.8,0.,4.8,0.,4.8
1980-11-13 21:15:19.660 ,5,0,0.,4.8,0.,4.8,0.,4.8,0.,4.8
1980-11-13 21:15:24.460 ,5,0,0.,4.8,0.,4.8,0.,4.8,0.,4.8
1980-11-13 21:15:29.260 ,5,0,0.,4.8,1.,4.8,0.,4.8,0.,4.8
1980-11-13 21:15:34.060 ,5,0,0.,4.8,1.,4.8,0.,4.8,0.,4.8
1980-11-13 21:15:38.860 ,5,0,0.,4.8,0.,4.8,1.,4.8,0.,4.8
1980-11-13 21:15:43.660 ,5,0,0.,4.8,1.,4.8,0.,4.8,0.,4.8
1980-11-13 21:15:48.460 ,0,0,0.,4.8,0.,4.8,0.,4.8,0.,4.8
1980-11-13 21:15:53.260 ,0,0,0.,4.8,0.,4.8,0.,4.8,0.,4.8
1980-11-13 21:15:58.060 ,0,0,0.,4.8,2.,4.8,0.,4.8,0.,4.8
1980-11-13 21:16:02.860 ,0,0,0.,4.8,0.,4.8,0.,4.8,1.,4.8
1980-11-13 21:16:07.660 ,0,0,0.,4.8,0.,4.8,0.,4.8,0.,4.8
1980-11-13 21:16:12.460 ,2,0,0.,4.8,0.,4.8,0.,4.8,0.,4.8
1980-11-13 21:16:17.260 ,2,0,0.,4.8,0.,4.8,1.,4.8,0.,4.8
1980-11-13 21:16:22.060 ,2,0,0.,4.8,0.,4.8,0.,4.8,1.,4.8
1980-11-13 21:16:26.860 ,2,0,0.,4.8,0.,4.8,0.,4.8,1.,4.8
1980-11-13 21:16:31.660 ,2,0,0.,4.8,1.,4.8,0.,4.8,0.,4.8
1980-11-13 21:16:36.460 ,2,0,0.,4.8,0.,4.8,0.,4.8,0.,4.8
1980-11-13 21:16:41.260 ,2,0,0.,4.8,0.,4.8,0.,4.8,0.,4.8
1980-11-13 21:16:46.060 ,2,0,0.,4.8,1.,4.8,0.,4.8,0.,4.8
1980-11-13 21:16:50.860 ,2,0,0.,4.8,1.,4.8,0.,4.8,0.,4.8
1980-11-13 21:16:55.660 ,2,0,0.,4.8,0.,4.8,0.,4.8,0.,4.8
1980-11-13 21:17:00.460 ,2,0,0.,4.8,0.,4.8,0.,4.8,0.,4.8
1980-11-13 21:17:05.260 ,2,0,0.,4.8,0.,4.8,0.,4.8,0.,4.8
1980-11-13 21:17:10.060 ,2,0,0.,4.8,1.,4.8,0.,4.8,0.,4.8
1980-11-13 21:17:14.860 ,2,0,0.,4.8,1.,4.8,0.,4.8,0.,4.8
1980-11-13 21:17:19.660 ,2,0,0.,4.8,0.,4.8,0.,4.8,0.,4.8
1980-11-13 21:17:24.460 ,2,0,0.,4.8,0.,4.8,0.,4.8,0.,4.8
1980-11-13 21:17:29.260 ,2,0,0.,4.8,0.,4.8,0.,4.8,0.,4.8
1980-11-13 21:17:34.060 ,2,0,0.,4.8,1.,4.8,0.,4.8,0.,4.8
1980-11-13 21:17:38.860 ,2,0,0.,4.8,0.,4.8,0.,4.8,0.,4.8
1980-11-13 21:17:43.660 ,2,0,0.,4.8,0.,4.8,0.,4.8,0.,4.8
1980-11-13 21:17:48.460 ,2,0,0.,4.8,0.,4.8,0.,4.8,0.,4.8
1980-11-13 21:17:53.260 ,2,0,0.,4.8,2.,4.8,0.,4.8,0.,4.8
1980-11-13 21:17:58.060 ,2,0,0.,4.8,0.,4.8,0.,4.8,0.,4.8
1980-11-13 21:18:02.860 ,2,0,0.,4.8,1.,4.8,1.,4.8,0.,4.8
1980-11-13 21:18:07.660 ,2,0,0.,4.8,0.,4.8,0.,4.8,0.,4.8
1980-11-13 21:18:12.460 ,2,0,0.,4.8,1.,4.8,2.,4.8,0.,4.8
1980-11-13 21:18:17.260 ,2,0,0.,4.8,0.,4.8,0.,4.8,0.,4.8
1980-11-13 21:18:22.060 ,2,0,0.,4.8,0.,4.8,0.,4.8,0.,4.8
1980-11-13 21:18:26.860 ,2,0,0.,4.8,1.,4.8,0.,4.8,1.,4.8
1980-11-13 21:18:31.660 ,2,0,0.,4.8,0.,4.8,0.,4.8,0.,4.8
1980-11-13 21:18:36.460 ,2,0,0.,4.8,2.,4.8,0.,4.8,0.,4.8
1980-11-13 21:18:41.260 ,2,0,0.,4.8,0.,4.8,1.,4.8,0.,4.8
1980-11-13 21:18:46.060 ,2,0,0.,4.8,0.,4.8,0.,4.8,1.,4.8
1980-11-13 21:18:50.860 ,2,0,0.,4.8,0.,4.8,0.,4.8,0.,4.8
1980-11-13 21:18:55.660 ,2,0,0.,4.8,0.,4.8,1.,4.8,0.,4.8
1980-11-13 21:19:00.460 ,2,0,0.,4.8,1.,4.8,2.,4.8,0.,4.8
1980-11-13 21:19:05.260 ,2,0,0.,4.8,0.,4.8,0.,4.8,0.,4.8
1980-11-13 21:19:10.060 ,2,0,0.,4.8,0.,4.8,0.,4.8,0.,4.8
1980-11-13 21:19:14.860 ,2,0,0.,4.8,0.,4.8,0.,4.8,0.,4.8
1980-11-13 21:19:19.660 ,2,0,0.,4.8,0.,4.8,0.,4.8,0.,4.8
1980-11-13 21:19:24.460 ,2,0,0.,4.8,0.,4.8,0.,4.8,0.,4.8
1980-11-13 21:19:29.260 ,2,0,0.,4.8,0.,4.8,0.,4.8,0.,4.8
1980-11-13 21:19:34.060 ,2,0,0.,4.8,0.,4.8,0.,4.8,0.,4.8
1980-11-13 21:19:38.860 ,2,0,0.,4.8,2.,4.8,0.,4.8,0.,4.8
1980-11-13 21:19:43.660 ,2,0,0.,4.8,0.,4.8,0.,4.8,0.,4.8
1980-11-13 21:19:48.460 ,2,0,0.,4.8,1.,4.8,0.,4.8,0.,4.8
1980-11-13 21:19:53.260 ,2,0,0.,4.8,0.,4.8,0.,4.8,0.,4.8
1980-11-13 21:19:58.060 ,2,0,0.,4.8,1.,4.8,0.,4.8,0.,4.8
1980-11-13 21:20:02.860 ,2,0,0.,4.8,1.,4.8,0.,4.8,0.,4.8
1980-11-13 21:20:07.660 ,2,0,0.,4.8,1.,4.8,0.,4.8,0.,4.8
1980-11-13 21:20:12.460 ,2,0,0.,4.8,0.,4.8,1.,4.8,0.,4.8
1980-11-13 21:20:17.260 ,2,0,0.,4.8,1.,4.8,0.,4.8,0.,4.8
1980-11-13 21:20:22.060 ,2,0,0.,4.8,1.,4.8,0.,4.8,0.,4.8
1980-11-13 21:20:26.860 ,2,0,0.,4.8,0.,4.8,0.,4.8,0.,4.8
1980-11-13 21:20:31.660 ,2,0,0.,4.8,2.,4.8,0.,4.8,0.,4.8
1980-11-13 21:20:36.460 ,2,0,0.,4.8,0.,4.8,0.,4.8,0.,4.8
1980-11-13 21:20:41.260 ,2,0,0.,4.8,1.,4.8,0.,4.8,0.,4.8
1980-11-13 21:20:46.060 ,2,0,0.,4.8,1.,4.8,0.,4.8,0.,4.8
1980-11-13 21:20:50.860 ,2,0,0.,4.8,0.,4.8,0.,4.8,0.,4.8
1980-11-13 21:20:55.660 ,2,0,0.,4.8,0.,4.8,0.,4.8,1.,4.8
1980-11-13 21:21:00.460 ,2,0,0.,4.8,1.,4.8,0.,4.8,0.,4.8
1980-11-13 21:21:05.260 ,2,0,0.,4.8,0.,4.8,0.,4.8,0.,4.8
1980-11-13 21:21:10.060 ,2,0,0.,4.8,2.,4.8,0.,4.8,0.,4.8
1980-11-13 21:21:14.860 ,2,0,0.,4.8,0.,4.8,0.,4.8,0.,4.8
1980-11-13 21:21:19.660 ,2,0,0.,4.8,1.,4.8,0.,4.8,1.,4.8
1980-11-13 21:21:24.460 ,2,0,0.,4.8,0.,4.8,0.,4.8,0.,4.8
1980-11-13 21:21:29.260 ,2,0,0.,4.8,0.,4.8,0.,4.8,0.,4.8
1980-11-13 21:21:34.060 ,2,0,0.,4.8,0.,4.8,0.,4.8,1.,4.8
1980-11-13 21:21:38.860 ,2,0,0.,4.8,0.,4.8,0.,4.8,0.,4.8
1980-11-13 21:21:43.660 ,2,0,0.,4.8,1.,4.8,0.,4.8,0.,4.8
1980-11-13 21:21:48.460 ,2,0,0.,4.8,0.,4.8,1.,4.8,0.,4.8
1980-11-13 21:21:53.260 ,2,0,0.,4.8,0.,4.8,0.,4.8,0.,4.8
1980-11-13 21:21:58.060 ,2,0,0.,4.8,0.,4.8,1.,4.8,0.,4.8
1980-11-13 21:22:02.860 ,2,0,0.,4.8,1.,4.8,0.,4.8,0.,4.8
1980-11-13 21:22:07.660 ,2,0,0.,4.8,1.,4.8,0.,4.8,0.,4.8
1980-11-13 21:22:12.460 ,2,0,0.,4.8,2.,4.8,0.,4.8,0.,4.8
1980-11-13 21:22:17.260 ,2,0,0.,4.8,0.,4.8,0.,4.8,0.,4.8
1980-11-13 21:22:22.060 ,2,0,0.,4.8,1.,4.8,0.,4.8,0.,4.8
1980-11-13 21:22:26.860 ,2,0,0.,4.8,1.,4.8,1.,4.8,0.,4.8
1980-11-13 21:22:31.660 ,2,0,0.,4.8,0.,4.8,0.,4.8,0.,4.8
1980-11-13 21:22:36.460 ,2,0,0.,4.8,2.,4.8,0.,4.8,0.,4.8
1980-11-13 21:22:41.260 ,2,0,0.,4.8,0.,4.8,0.,4.8,0.,4.8
1980-11-13 21:22:46.060 ,2,0,0.,4.8,1.,4.8,0.,4.8,0.,4.8
1980-11-13 21:22:50.860 ,2,0,0.,4.8,0.,4.8,0.,4.8,1.,4.8
1980-11-13 21:22:55.660 ,2,0,0.,4.8,0.,4.8,0.,4.8,0.,4.8
1980-11-13 21:23:00.460 ,2,0,0.,4.8,1.,4.8,0.,4.8,0.,4.8
1980-11-13 21:23:05.260 ,2,0,0.,4.8,0.,4.8,0.,4.8,0.,4.8
1980-11-13 21:23:10.060 ,2,0,0.,4.8,0.,4.8,0.,4.8,0.,4.8
1980-11-13 21:23:14.860 ,2,0,0.,4.8,0.,4.8,0.,4.8,0.,4.8
1980-11-13 21:23:19.660 ,2,0,0.,4.8,0.,4.8,0.,4.8,1.,4.8
1980-11-13 21:23:24.460 ,2,0,0.,4.8,1.,4.8,0.,4.8,0.,4.8
1980-11-13 21:23:29.260 ,2,0,0.,4.8,1.,4.8,0.,4.8,0.,4.8
1980-11-13 21:23:34.060 ,2,0,0.,4.8,0.,4.8,0.,4.8,0.,4.8
1980-11-13 21:23:38.860 ,2,0,0.,4.8,0.,4.8,0.,4.8,0.,4.8
1980-11-13 21:23:43.660 ,2,0,0.,4.8,0.,4.8,0.,4.8,0.,4.8
1980-11-13 21:23:48.460 ,2,0,0.,4.8,0.,4.8,0.,4.8,0.,4.8
1980-11-13 21:23:53.260 ,2,0,0.,4.8,0.,4.8,0.,4.8,0.,4.8
1980-11-13 21:23:58.060 ,2,0,0.,4.8,0.,4.8,0.,4.8,0.,4.8
1980-11-13 21:24:02.860 ,2,0,0.,4.8,0.,4.8,0.,4.8,0.,4.8
1980-11-13 21:24:07.660 ,2,0,0.,4.8,0.,4.8,0.,4.8,0.,4.8
1980-11-13 21:24:12.460 ,2,0,0.,4.8,0.,4.8,0.,4.8,0.,4.8
1980-11-13 21:24:17.260 ,2,0,0.,4.8,0.,4.8,0.,4.8,0.,4.8
1980-11-13 21:24:22.060 ,2,0,0.,4.8,0.,4.8,0.,4.8,0.,4.8
1980-11-13 21:24:26.860 ,2,0,0.,4.8,1.,4.8,0.,4.8,0.,4.8
1980-11-13 21:24:31.660 ,2,0,0.,4.8,1.,4.8,0.,4.8,0.,4.8
1980-11-13 21:24:36.460 ,2,0,0.,4.8,0.,4.8,0.,4.8,0.,4.8
1980-11-13 21:24:41.260 ,2,0,0.,4.8,0.,4.8,0.,4.8,0.,4.8
1980-11-13 21:24:46.060 ,2,0,0.,4.8,0.,4.8,0.,4.8,0.,4.8
1980-11-13 21:24:50.860 ,2,0,0.,4.8,0.,4.8,1.,4.8,0.,4.8
1980-11-13 21:24:55.660 ,2,0,0.,4.8,1.,4.8,0.,4.8,0.,4.8
1980-11-13 21:25:00.460 ,2,0,0.,4.8,1.,4.8,1.,4.8,0.,4.8
1980-11-13 21:25:05.260 ,2,0,0.,4.8,1.,4.8,1.,4.8,0.,4.8
1980-11-13 21:25:10.060 ,2,0,0.,4.8,0.,4.8,0.,4.8,0.,4.8
1980-11-13 21:25:14.860 ,2,0,0.,4.8,0.,4.8,0.,4.8,0.,4.8
1980-11-13 21:25:19.660 ,2,0,0.,4.8,0.,4.8,0.,4.8,0.,4.8
1980-11-13 21:25:24.460 ,2,0,0.,4.8,1.,4.8,1.,4.8,0.,4.8
1980-11-13 21:25:29.260 ,2,0,0.,4.8,0.,4.8,0.,4.8,0.,4.8
1980-11-13 21:25:34.060 ,2,0,0.,4.8,0.,4.8,0.,4.8,0.,4.8
1980-11-13 21:25:38.860 ,2,0,0.,4.8,0.,4.8,1.,4.8,0.,4.8
1980-11-13 21:25:43.660 ,2,0,0.,4.8,0.,4.8,1.,4.8,0.,4.8
1980-11-13 21:25:48.460 ,2,0,0.,4.8,1.,4.8,0.,4.8,0.,4.8
1980-11-13 21:25:53.260 ,2,0,0.,4.8,1.,4.8,0.,4.8,0.,4.8
1980-11-13 21:25:58.060 ,2,0,0.,4.8,0.,4.8,0.,4.8,0.,4.8
1980-11-13 21:26:02.860 ,2,0,0.,4.8,1.,4.8,0.,4.8,0.,4.8
1980-11-13 21:26:07.660 ,2,0,0.,4.8,2.,4.8,0.,4.8,0.,4.8
1980-11-13 21:26:12.460 ,2,0,0.,4.8,0.,4.8,0.,4.8,0.,4.8
1980-11-13 21:26:17.260 ,2,0,0.,4.8,1.,4.8,0.,4.8,0.,4.8
1980-11-13 21:26:22.060 ,2,0,0.,4.8,1.,4.8,0.,4.8,0.,4.8
1980-11-13 21:26:26.860 ,2,0,0.,4.8,0.,4.8,0.,4.8,1.,4.8
1980-11-13 21:26:31.660 ,2,0,0.,4.8,0.,4.8,0.,4.8,0.,4.8
1980-11-13 21:26:36.460 ,2,0,0.,4.8,0.,4.8,0.,4.8,0.,4.8
1980-11-13 21:26:41.260 ,2,0,0.,4.8,1.,4.8,0.,4.8,1.,4.8
1980-11-13 21:26:46.060 ,2,0,0.,4.8,0.,4.8,0.,4.8,0.,4.8
1980-11-13 21:26:50.860 ,2,0,0.,4.8,1.,4.8,0.,4.8,0.,4.8
1980-11-13 21:26:55.660 ,2,0,0.,4.8,1.,4.8,0.,4.8,0.,4.8
1980-11-13 21:27:00.460 ,2,0,0.,4.8,0.,4.8,0.,4.8,0.,4.8
1980-11-13 21:27:05.260 ,2,0,0.,4.8,1.,4.8,0.,4.8,0.,4.8
1980-11-13 21:27:10.060 ,2,0,0.,4.8,0.,4.8,0.,4.8,0.,4.8
1980-11-13 21:27:14.860 ,2,0,0.,4.8,3.,4.8,0.,4.8,0.,4.8
1980-11-13 21:27:19.660 ,2,0,0.,4.8,2.,4.8,0.,4.8,0.,4.8
1980-11-13 21:27:24.460 ,2,0,0.,4.8,0.,4.8,0.,4.8,0.,4.8
1980-11-13 21:27:29.260 ,2,0,0.,4.8,0.,4.8,1.,4.8,0.,4.8
1980-11-13 21:27:34.060 ,2,0,0.,4.8,1.,4.8,0.,4.8,1.,4.8
1980-11-13 21:27:38.860 ,2,0,0.,4.8,0.,4.8,0.,4.8,0.,4.8
1980-11-13 21:27:43.660 ,2,0,0.,4.8,0.,4.8,0.,4.8,0.,4.8
1980-11-13 21:27:48.460 ,2,0,0.,4.8,1.,4.8,0.,4.8,1.,4.8
1980-11-13 21:27:53.260 ,2,0,0.,4.8,0.,4.8,0.,4.8,1.,4.8
1980-11-13 21:27:58.060 ,2,0,0.,4.8,0.,4.8,0.,4.8,0.,4.8
1980-11-13 21:28:02.860 ,2,0,0.,4.8,2.,4.8,0.,4.8,0.,4.8
1980-11-13 21:28:07.660 ,2,0,0.,4.8,1.,4.8,0.,4.8,0.,4.8
1980-11-13 21:28:12.460 ,0,0,0.,4.8,0.,4.8,0.,4.8,0.,4.8
1980-11-13 21:28:17.260 ,0,0,0.,4.8,0.,4.8,0.,4.8,0.,4.8
1980-11-13 21:28:22.060 ,0,0,0.,4.8,0.,4.8,0.,4.8,0.,4.8
1980-11-13 21:28:26.860 ,0,0,0.,4.8,2.,4.8,0.,4.8,0.,4.8
1980-11-13 21:28:31.660 ,0,0,0.,4.8,1.,4.8,0.,4.8,0.,4.8
1980-11-13 21:28:12.460 ,2,0,0.,4.8,0.,4.8,0.,4.8,0.,4.8
1980-11-13 21:28:17.260 ,2,0,0.,4.8,0.,4.8,0.,4.8,0.,4.8
1980-11-13 21:28:22.060 ,2,0,0.,4.8,0.,4.8,0.,4.8,0.,4.8
1980-11-13 21:28:26.860 ,2,0,0.,4.8,2.,4.8,0.,4.8,0.,4.8
1980-11-13 21:28:31.660 ,2,0,0.,4.8,1.,4.8,0.,4.8,0.,4.8
1980-11-13 21:28:36.460 ,2,0,0.,4.8,0.,4.8,0.,4.8,0.,4.8
1980-11-13 21:28:41.260 ,2,0,0.,4.8,1.,4.8,0.,4.8,0.,4.8
1980-11-13 21:28:46.060 ,2,0,0.,4.8,1.,4.8,0.,4.8,0.,4.8
1980-11-13 21:28:50.860 ,2,0,0.,4.8,0.,4.8,0.,4.8,0.,4.8
1980-11-13 21:28:55.660 ,2,0,0.,4.8,0.,4.8,1.,4.8,0.,4.8
1980-11-13 21:29:00.460 ,2,0,0.,4.8,1.,4.8,0.,4.8,0.,4.8
1980-11-13 21:29:05.260 ,2,0,0.,4.8,0.,4.8,0.,4.8,0.,4.8
1980-11-13 21:29:10.060 ,2,0,0.,4.8,0.,4.8,0.,4.8,0.,4.8
1980-11-13 21:29:14.860 ,2,0,0.,4.8,1.,4.8,0.,4.8,0.,4.8
1980-11-13 21:29:19.660 ,2,0,0.,4.8,0.,4.8,0.,4.8,0.,4.8
1980-11-13 21:29:24.460 ,2,0,0.,4.8,1.,4.8,0.,4.8,0.,4.8
1980-11-13 21:29:29.260 ,2,0,0.,4.8,0.,4.8,1.,4.8,0.,4.8
1980-11-13 21:29:34.060 ,2,0,0.,4.8,0.,4.8,0.,4.8,0.,4.8
1980-11-13 21:29:38.860 ,2,0,0.,4.8,0.,4.8,1.,4.8,0.,4.8
1980-11-13 21:29:43.660 ,2,0,0.,4.8,0.,4.8,0.,4.8,0.,4.8
1980-11-13 21:29:48.460 ,2,0,0.,4.8,0.,4.8,1.,4.8,0.,4.8
1980-11-13 21:29:53.260 ,2,0,0.,4.8,1.,4.8,0.,4.8,0.,4.8
1980-11-13 21:29:58.060 ,2,0,0.,4.8,0.,4.8,0.,4.8,0.,4.8
1980-11-13 21:30:02.860 ,2,0,0.,4.8,1.,4.8,0.,4.8,0.,4.8
1980-11-13 21:30:07.660 ,2,0,0.,4.8,0.,4.8,0.,4.8,0.,4.8
1980-11-13 21:30:12.460 ,2,0,0.,4.8,1.,4.8,0.,4.8,0.,4.8
1980-11-13 21:30:17.260 ,2,0,0.,4.8,0.,4.8,0.,4.8,0.,4.8
1980-11-13 21:30:22.060 ,2,0,0.,4.8,0.,4.8,0.,4.8,0.,4.8
1980-11-13 21:30:26.860 ,2,0,0.,4.8,0.,4.8,1.,4.8,0.,4.8
1980-11-13 21:30:31.660 ,2,0,0.,4.8,0.,4.8,0.,4.8,0.,4.8
1980-11-13 21:30:36.460 ,2,0,0.,4.8,1.,4.8,0.,4.8,0.,4.8
1980-11-13 21:30:41.260 ,2,0,0.,4.8,0.,4.8,0.,4.8,0.,4.8
1980-11-13 21:30:46.060 ,2,0,0.,4.8,0.,4.8,0.,4.8,0.,4.8
1980-11-13 21:30:50.860 ,2,0,0.,4.8,1.,4.8,0.,4.8,0.,4.8
1980-11-13 21:30:55.660 ,2,0,0.,4.8,2.,4.8,0.,4.8,0.,4.8
1980-11-13 21:31:00.460 ,2,0,0.,4.8,1.,4.8,1.,4.8,0.,4.8
1980-11-13 21:31:05.260 ,2,0,0.,4.8,0.,4.8,1.,4.8,1.,4.8
1980-11-13 21:31:10.060 ,2,0,0.,4.8,0.,4.8,0.,4.8,0.,4.8
1980-11-13 21:31:14.860 ,2,0,0.,4.8,0.,4.8,1.,4.8,0.,4.8
1980-11-13 21:31:19.660 ,2,0,0.,4.8,1.,4.8,0.,4.8,0.,4.8
1980-11-13 21:31:24.460 ,2,0,0.,4.8,0.,4.8,0.,4.8,0.,4.8
1980-11-13 21:31:29.260 ,2,0,0.,4.8,0.,4.8,0.,4.8,0.,4.8
1980-11-13 21:31:34.060 ,2,0,0.,4.8,1.,4.8,0.,4.8,0.,4.8
1980-11-13 21:31:38.860 ,2,0,0.,4.8,0.,4.8,0.,4.8,0.,4.8
1980-11-13 21:31:43.660 ,2,0,0.,4.8,2.,4.8,1.,4.8,0.,4.8
1980-11-13 21:31:48.460 ,2,0,0.,4.8,0.,4.8,0.,4.8,0.,4.8
1980-11-13 21:31:53.260 ,2,0,0.,4.8,0.,4.8,0.,4.8,1.,4.8
1980-11-13 21:31:58.060 ,2,0,0.,4.8,0.,4.8,0.,4.8,1.,4.8
1980-11-13 21:32:02.860 ,2,0,0.,4.8,0.,4.8,0.,4.8,0.,4.8
1980-11-13 21:32:07.660 ,2,0,0.,4.8,0.,4.8,0.,4.8,0.,4.8
1980-11-13 21:32:12.460 ,2,0,0.,4.8,0.,4.8,1.,4.8,1.,4.8
1980-11-13 21:32:17.260 ,2,0,0.,4.8,0.,4.8,0.,4.8,0.,4.8
1980-11-13 21:32:22.060 ,2,0,0.,4.8,0.,4.8,0.,4.8,0.,4.8
1980-11-13 21:32:26.860 ,2,0,0.,4.8,1.,4.8,0.,4.8,0.,4.8
1980-11-13 21:32:31.660 ,2,0,0.,4.8,0.,4.8,0.,4.8,0.,4.8
1980-11-13 21:32:36.460 ,2,0,0.,4.8,1.,4.8,0.,4.8,0.,4.8
1980-11-13 21:32:41.260 ,2,0,0.,4.8,0.,4.8,0.,4.8,0.,4.8
1980-11-13 21:32:46.060 ,2,0,0.,4.8,1.,4.8,0.,4.8,0.,4.8
1980-11-13 21:32:50.860 ,2,0,0.,4.8,0.,4.8,0.,4.8,0.,4.8
1980-11-13 21:32:55.660 ,2,0,0.,4.8,0.,4.8,0.,4.8,0.,4.8
1980-11-13 21:33:00.460 ,2,0,0.,4.8,2.,4.8,0.,4.8,0.,4.8
1980-11-13 21:33:05.260 ,2,0,0.,4.8,0.,4.8,0.,4.8,0.,4.8
1980-11-13 21:33:10.060 ,2,0,0.,4.8,1.,4.8,0.,4.8,0.,4.8
1980-11-13 21:33:14.860 ,2,0,0.,4.8,4.,4.8,0.,4.8,0.,4.8
1980-11-13 21:33:19.660 ,2,0,0.,4.8,1.,4.8,1.,4.8,0.,4.8
1980-11-13 21:33:24.460 ,2,0,0.,4.8,2.,4.8,1.,4.8,1.,4.8
1980-11-13 21:33:29.260 ,2,0,0.,4.8,1.,4.8,0.,4.8,0.,4.8
1980-11-13 21:33:34.060 ,2,0,0.,4.8,1.,4.8,0.,4.8,0.,4.8
1980-11-13 21:33:38.860 ,2,0,0.,4.8,0.,4.8,0.,4.8,0.,4.8
1980-11-13 21:33:43.660 ,2,0,0.,4.8,1.,4.8,0.,4.8,0.,4.8